sat.trackr.live / text

‹ back to catalog

ORIGAMISAT-2

NORAD 68795 · 2026-088D

PAYLOAD ACTIVE UNKNOWN

§ Identity

Operator
Country
JPN
Launch date
2026-04-23
Launch site
RLLB
Launch vehicle
Mass (kg)
RCS (m²)

External: N2YO · Heavens-Above · Gunter

§ Orbital elements

Epoch: 2026-05-25T03:26:58.315200Z

Period
95.49 min
Inclination
97.5019°
Eccentricity
0.0016513
Mean motion
15.08088584 rev/d
Perigee alt
530.6 km
Apogee alt
553.5 km
Semi-major
6,920.2 km
B*
2.2386e-4
RAAN
295.0662°
Arg perigee
156.0809°
Mean anomaly
204.1190°
Rev number
482

§ Raw data

ORIGAMISAT-21 68795U 26088D   26145.14373050  .00003400  00000+0  22386-3 0  99902 68795  97.5019 295.0662 0016513 156.0809 204.1190 15.08088584  4821

JSON: /api/v1/satellites/68795 · /tle

For live sub-satellite position, see the globe view (requires WebGL).

§ Visibility from observer

Set your observer location to see the next 7 days of passes ≥ 10°. The values pass through the URL so the page stays shareable.

No JS? Fill the form by hand. The geolocation button needs JavaScript.